[[{"header":{"parameterUnit":"m.s-1","parameterCategory":1,"la1":30.2991,"la2":30.254,"lo1":-89.0895,"lo2":-89.0444,"dy":0.0017,"dx":0.0017,"nx":28,"ny":28,"refTime":"2024-09-29T21:00:00:Z","depth":0,"parameterNumber":2,"parameterNumberName":"U-component_of_WINDS"},"data":[0,0,0,0,0,0,0,0,0,0,0,0,0,0,0,0,0,0,0,0,0,0,0,0,0,0,0,0,0,0,0,0,0,0,0,0,0,0,0,0,0,0,0,0,0,0,0,0,0,0,0,0,0,0,0,0,0,0,-0.3686,-0.3686,0,-0.3715,-0.3716,-0.3716,-0.3693,-0.3692,-0.3691,-0.369,-0.3722,-0.3723,-0.3725,0,0,0,0,0,0,0,0,0,0,0,0,0,-0.3609,-0.3611,-0.3686,-0.3686,-0.3686,-0.3715,-0.3716,-0.3716,-0.3693,-0.3692,-0.369,-0.3689,-0.3721,-0.3723,-0.3725,0,0,0,0,0,0,0,0,0,0,0,0,0,-0.3641,-0.3611,-0.3685,-0.3678,-0.3678,-0.3715,-0.3716,-0.3716,-0.3693,-0.3692,-0.369,-0.3689,-0.372,-0.3723,-0.3726,-0.3772,0,0,-0.3734,-0.3735,0,0,0,0,0,0,0,0,-0.3639,-0.3644,-0.3679,-0.3679,-0.3678,-0.3699,-0.37,-0.3735,-0.3693,-0.3687,-0.369,-0.3688,-0.3715,-0.3718,-0.3727,-0.3774,-0.3775,-0.3734,-0.3736,-0.3737,-0.3738,0,0,0,0,0,0,0,-0.3637,-0.3643,-0.3697,-0.3679,-0.3679,-0.3674,-0.3676,-0.3707,-0.3709,-0.3688,-0.3686,-0.369,-0.3715,-0.3725,-0.3728,-0.3776,-0.3734,-0.3736,-0.3738,-0.3739,-0.3861,-0.3862,0,0,0,0,0,0,-0.3636,-0.3641,-0.3696,-0.3698,-0.3655,-0.3676,-0.3679,-0.3694,-0.3709,-0.371,-0.3691,-0.3689,-0.3721,-0.3725,-0.3729,-0.3784,-0.3737,-0.3739,-0.3741,-0.3859,-0.3861,-0.3863,0,0,0,0,0,0,-0.3634,-0.3641,-0.3695,-0.3669,-0.3676,-0.3679,-0.3695,-0.3695,-0.3705,-0.3712,-0.3712,-0.3701,-0.372,-0.3725,-0.3761,-0.3785,-0.374,-0.3743,-0.3857,-0.386,-0.3862,-0.3895,0,0,0,0,0,0,-0.3632,-0.364,-0.3658,-0.367,-0.3677,-0.3727,-0.3697,-0.3697,-0.3709,-0.3706,-0.3721,-0.3722,-0.3719,-0.3757,-0.3764,-0.3788,-0.3745,-0.3855,-0.3858,-0.3861,-0.3892,-0.3898,-0.3904,0,0,0,0,0,-0.3629,-0.3667,-0.3659,-0.3666,-0.3699,-0.3729,-0.3733,-0.3729,-0.3711,-0.3729,-0.3733,-0.3721,-0.3781,-0.3761,-0.3769,-0.3793,-0.3854,-0.3857,-0.3861,-0.3889,-0.3897,-0.3904,0,0,0,0,0,0,-0.3659,-0.3668,-0.366,-0.3702,-0.3714,-0.3725,-0.3747,-0.3737,-0.3756,-0.3752,-0.3747,-0.375,-0.3788,-0.3794,-0.3772,-0.3839,-0.3815,-0.382,-0.3834,-0.3841,-0.3847,-0.3845,-0.3747,0,0,0,0,0,-0.367,-0.3692,-0.37,-0.3736,-0.3743,-0.3744,-0.3756,-0.3752,-0.3765,-0.3771,-0.3777,-0.3791,-0.3812,-0.3827,-0.3847,-0.3892,-0.3895,-0.3913,-0.3919,-0.3924,-0.3929,-0.3952,-0.396,-0.3875,-0.3875,-0.3875,0,0,-0.3694,-0.3701,-0.3716,-0.3742,-0.3751,-0.3775,-0.3749,-0.3775,-0.3793,-0.3775,-0.3809,-0.3814,-0.3829,-0.387,-0.3888,-0.3876,-0.3953,-0.3928,-0.3932,-0.3935,-0.3957,-0.3965,-0.3972,-0.3877,-0.3877,-0.3877,0,0,-0.3749,-0.3757,-0.3788,-0.3798,-0.3812,-0.3812,-0.3819,-0.3831,-0.3833,-0.3867,-0.3854,-0.3875,-0.3913,-0.3924,-0.3934,-0.3992,-0.3981,-0.3999,-0.403,-0.4053,-0.406,-0.4066,-0.4087,-0.4094,-0.4003,-0.4003,-0.4004,0,-0.3777,-0.3812,-0.3806,-0.3833,-0.3845,-0.3828,-0.386,-0.3869,-0.389,-0.3898,-0.3884,-0.393,-0.3939,-0.3982,-0.3996,-0.4005,-0.4013,-0.3998,-0.406,-0.4065,-0.4071,-0.4091,-0.4098,-0.4006,-0.4005,-0.4005,-0.4005,0,-0.3846,-0.387,-0.3893,-0.3912,-0.3927,-0.3956,-0.3954,-0.3969,-0.3963,-0.3965,-0.4,-0.4009,-0.4031,-0.4041,-0.4036,-0.4082,-0.4074,-0.406,-0.4036,-0.4081,-0.4099,-0.4107,-0.4008,-0.4008,-0.4007,-0.4007,0,0,-0.3922,-0.3936,-0.3944,-0.3953,-0.3966,-0.3985,-0.4013,-0.4034,-0.4047,-0.4061,-0.4084,-0.4116,-0.4102,-0.4114,-0.411,-0.413,-0.4175,-0.4113,-0.4113,-0.4124,-0.4227,-0.4238,-0.4247,-0.4168,-0.4169,-0.417,-0.4226,0,-0.3978,-0.4026,-0.4021,-0.4068,-0.409,-0.4074,-0.4099,-0.411,-0.4112,-0.4131,-0.4133,-0.4155,-0.4136,-0.4143,-0.4162,-0.4166,-0.4196,-0.4161,-0.419,-0.4191,-0.4187,-0.4256,-0.4268,-0.432,-0.4233,-0.4234,-0.4235,0,-0.405,-0.4066,-0.4114,-0.4124,-0.4133,-0.4155,-0.4173,-0.4191,-0.4203,-0.4203,-0.4216,-0.4207,-0.4236,-0.421,-0.4249,-0.4225,-0.4236,-0.424,-0.4242,-0.4245,-0.4216,-0.4261,-0.4337,-0.4345,-0.4246,-0.4245,-0.4245,0,-0.4101,-0.4134,-0.4167,-0.4175,-0.4186,-0.4202,-0.4208,-0.4218,-0.423,-0.4246,-0.4254,-0.4273,-0.4284,-0.4298,-0.4295,-0.4277,-0.4335,-0.4309,-0.4336,-0.4336,-0.4349,-0.4348,-0.4428,-0.4356,-0.4356,-0.4355,-0.4355,0,-0.4164,-0.4195,-0.419,-0.4211,-0.4244,-0.4237,-0.427,-0.4274,-0.4283,-0.4304,-0.4291,-0.4311,-0.4306,-0.4326,-0.4323,-0.4356,-0.436,-0.4361,-0.436,-0.4363,-0.4363,-0.437,-0.4367,-0.4358,-0.4357,-0.4357,-0.4356,0,-0.4227,-0.4225,-0.426,-0.4268,-0.427,-0.4295,-0.4301,-0.4321,-0.4321,-0.4347,-0.4353,-0.4354,-0.4376,-0.4374,-0.44,-0.4398,-0.4438,-0.4433,-0.4434,-0.4433,-0.446,-0.4457,-0.4547,-0.4558,-0.4479,-0.448,-0.448,0,-0.4268,-0.4291,-0.4301,-0.4313,-0.432,-0.4341,-0.4353,-0.4347,-0.436,-0.4375,-0.4392,-0.4413,-0.443,-0.4466,-0.4469,-0.4488,-0.4483,-0.4513,-0.4486,-0.4487,-0.4484,-0.4482,-0.4484,-0.4519,-0.452,-0.452,-0.4521,0,-0.4341,-0.4339,-0.4357,-0.4374,-0.4389,-0.4402,-0.4415,-0.4426,-0.4421,-0.4436,-0.4459,-0.4471,-0.4496,-0.4517,-0.4535,-0.4541,-0.453,-0.4529,-0.4536,-0.4539,-0.4539,-0.4539,-0.4449,-0.4528,-0.4527,-0.4526,-0.4526,-0.4526,-0.4394,-0.4414,-0.4423,-0.4443,-0.4451,-0.4463,-0.4481,-0.4483,-0.4501,-0.4521,-0.4516,-0.4541,-0.4552,-0.4574,-0.4582,-0.4601,-0.459,-0.4601,-0.4604,-0.4606,-0.4609,-0.4535,-0.4604,-0.4604,-0.4604,-0.4604,-0.4604,0,-0.4467,-0.4471,-0.449,-0.4507,-0.4523,-0.451,-0.4523,-0.4537,-0.4559,-0.4569,-0.4585,-0.461,-0.463,-0.4634,-0.4653,-0.4668,-0.4663,-0.4673,-0.4672,-0.4673,-0.4618,-0.461,-0.4676,-0.4676,-0.4676,-0.4676,-0.4676,-0.4676,-0.4506,-0.4538,-0.4536,-0.4572,-0.4577,-0.4601,-0.4609,-0.4619,-0.4627,-0.4656,-0.4672,-0.4674,-0.4681,-0.47,-0.4718,-0.4719,-0.4726,-0.4738,-0.4737,-0.4685,-0.4678,-0.4671,-0.4663,-0.4739,-0.474,-0.479,-0.4791,-0.4791]},{"header":{"parameterUnit":"m.s-1","parameterCategory":1,"la1":30.2991,"la2":30.254,"lo1":-89.0895,"lo2":-89.0444,"dy":0.0017,"dx":0.0017,"nx":28,"ny":28,"refTime":"2024-09-29T21:00:00:Z","depth":0,"parameterNumber":3,"parameterNumberName":"V-component_of_WINDS"},"data":[0,0,0,0,0,0,0,0,0,0,0,0,0,0,0,0,0,0,0,0,0,0,0,0,0,0,0,0,0,0,0,0,0,0,0,0,0,0,0,0,0,0,0,0,0,0,0,0,0,0,0,0,0,0,0,0,0,0,-3.5425,-3.5425,0,-3.5462,-3.5463,-3.5463,-3.5404,-3.5402,-3.54,-3.5398,-3.5433,-3.5436,-3.5438,0,0,0,0,0,0,0,0,0,0,0,0,0,-3.5297,-3.53,-3.5425,-3.5425,-3.5426,-3.5462,-3.5463,-3.5463,-3.5404,-3.5402,-3.5399,-3.5397,-3.5432,-3.5435,-3.5439,0,0,0,0,0,0,0,0,0,0,0,0,0,-3.5345,-3.5301,-3.5425,-3.5401,-3.5399,-3.5462,-3.5463,-3.5463,-3.5405,-3.5402,-3.5399,-3.5396,-3.5431,-3.5435,-3.5439,-3.5526,0,0,-3.5452,-3.5454,0,0,0,0,0,0,0,0,-3.5343,-3.535,-3.5404,-3.5402,-3.5401,-3.5425,-3.5431,-3.5484,-3.5406,-3.5402,-3.5398,-3.5394,-3.5433,-3.5436,-3.545,-3.5528,-3.5529,-3.5452,-3.5455,-3.5457,-3.5458,0,0,0,0,0,0,0,-3.534,-3.5348,-3.5439,-3.5405,-3.5403,-3.5387,-3.539,-3.5441,-3.5434,-3.5403,-3.5398,-3.5404,-3.5431,-3.5446,-3.5451,-3.553,-3.5452,-3.5456,-3.5459,-3.546,-3.5681,-3.5684,0,0,0,0,0,0,-3.534,-3.5346,-3.5438,-3.5441,-3.5364,-3.5391,-3.5395,-3.542,-3.5433,-3.5432,-3.5406,-3.5401,-3.544,-3.5446,-3.5452,-3.5554,-3.5457,-3.5461,-3.5463,-3.5677,-3.5681,-3.5685,0,0,0,0,0,0,-3.5337,-3.5349,-3.5437,-3.5392,-3.5402,-3.5397,-3.5426,-3.5423,-3.5438,-3.5436,-3.5434,-3.5423,-3.5438,-3.5446,-3.5508,-3.5555,-3.5463,-3.5467,-3.5673,-3.5679,-3.5683,-3.5761,0,0,0,0,0,0,-3.5334,-3.5348,-3.5382,-3.5393,-3.5405,-3.5494,-3.5428,-3.5426,-3.5446,-3.5439,-3.5452,-3.5451,-3.5436,-3.5502,-3.5513,-3.5559,-3.547,-3.5669,-3.5676,-3.5682,-3.5754,-3.5768,-3.578,0,0,0,0,0,-3.5329,-3.5402,-3.5384,-3.5396,-3.5448,-3.5497,-3.5503,-3.5487,-3.545,-3.5483,-3.5482,-3.545,-3.5548,-3.5509,-3.552,-3.5569,-3.5666,-3.5674,-3.5681,-3.5748,-3.5765,-3.5779,0,0,0,0,0,0,-3.5394,-3.5403,-3.5383,-3.5462,-3.5479,-3.5487,-3.5529,-3.5505,-3.5532,-3.5525,-3.5501,-3.5504,-3.5572,-3.5576,-3.5533,-3.5653,-3.5601,-3.5611,-3.5648,-3.5664,-3.5677,-3.5674,-3.5473,0,0,0,0,0,-3.5418,-3.5459,-3.5463,-3.5532,-3.5542,-3.5534,-3.5555,-3.5541,-3.5557,-3.5564,-3.5568,-3.5584,-3.5618,-3.5641,-3.5673,-3.5754,-3.5756,-3.5793,-3.5806,-3.5816,-3.5825,-3.5868,-3.5884,-3.5709,-3.5709,-3.5709,0,0,-3.5467,-3.5476,-3.5504,-3.5545,-3.5557,-3.5599,-3.5541,-3.5587,-3.5618,-3.5571,-3.5631,-3.5634,-3.5651,-3.5723,-3.5755,-3.5729,-3.5874,-3.5826,-3.5834,-3.5837,-3.5877,-3.5894,-3.5909,-3.5714,-3.5714,-3.5713,0,0,-3.5577,-3.5589,-3.5647,-3.5661,-3.568,-3.5675,-3.5689,-3.5701,-3.5701,-3.5761,-3.5727,-3.5762,-3.5822,-3.5835,-3.5849,-3.5965,-3.5937,-3.5976,-3.6042,-3.6085,-3.6098,-3.6111,-3.6151,-3.6167,-3.5985,-3.5985,-3.5985,0,-3.5635,-3.5698,-3.568,-3.573,-3.5749,-3.5709,-3.5768,-3.5781,-3.5809,-3.5823,-3.5793,-3.5867,-3.5876,-3.5951,-3.5979,-3.5992,-3.6007,-3.5974,-3.6098,-3.611,-3.6121,-3.616,-3.6175,-3.599,-3.5989,-3.5989,-3.5988,0,-3.5768,-3.5812,-3.5857,-3.5887,-3.5911,-3.5964,-3.5953,-3.5979,-3.5963,-3.596,-3.6021,-3.603,-3.6062,-3.6079,-3.6063,-3.6152,-3.6135,-3.6102,-3.6049,-3.6143,-3.6179,-3.6193,-3.5996,-3.5995,-3.5993,-3.5992,0,0,-3.592,-3.594,-3.5957,-3.597,-3.5988,-3.6021,-3.6073,-3.6106,-3.6128,-3.6149,-3.6191,-3.6242,-3.6212,-3.6229,-3.6214,-3.6251,-3.6342,-3.6214,-3.6214,-3.6237,-3.644,-3.6464,-3.6482,-3.6323,-3.6326,-3.6328,-3.6438,0,-3.603,-3.612,-3.6106,-3.6192,-3.6233,-3.6196,-3.624,-3.6256,-3.6255,-3.6287,-3.6285,-3.6322,-3.628,-3.629,-3.6325,-3.6323,-3.6382,-3.6315,-3.6361,-3.6363,-3.6358,-3.6501,-3.6527,-3.663,-3.6452,-3.6455,-3.6456,0,-3.617,-3.6198,-3.6289,-3.6302,-3.6318,-3.6359,-3.6388,-3.642,-3.6436,-3.6432,-3.6451,-3.6429,-3.6479,-3.6426,-3.6493,-3.6448,-3.6466,-3.6468,-3.6471,-3.6475,-3.6415,-3.6508,-3.6663,-3.6678,-3.6478,-3.6477,-3.6475,0,-3.6272,-3.6332,-3.6394,-3.6406,-3.6422,-3.6452,-3.6459,-3.6473,-3.6494,-3.6519,-3.6532,-3.6562,-3.6578,-3.6601,-3.6588,-3.655,-3.6658,-3.6603,-3.6655,-3.6656,-3.6679,-3.6678,-3.684,-3.6691,-3.6691,-3.6691,-3.669,0,-3.6396,-3.6453,-3.644,-3.6478,-3.6541,-3.6523,-3.6585,-3.6588,-3.6601,-3.6638,-3.6607,-3.6643,-3.6623,-3.6656,-3.6645,-3.6703,-3.671,-3.6708,-3.6704,-3.6711,-3.6711,-3.6722,-3.6714,-3.6695,-3.6694,-3.6693,-3.6692,0,-3.652,-3.6514,-3.6579,-3.659,-3.6593,-3.6639,-3.6647,-3.6682,-3.6679,-3.6726,-3.6736,-3.673,-3.6768,-3.6757,-3.6797,-3.679,-3.6863,-3.685,-3.6858,-3.6855,-3.6908,-3.6903,-3.7081,-3.7104,-3.6942,-3.6943,-3.6944,0,-3.66,-3.6643,-3.6659,-3.6682,-3.6693,-3.6731,-3.6752,-3.6736,-3.6759,-3.6782,-3.6814,-3.6849,-3.6877,-3.6939,-3.6937,-3.6968,-3.6955,-3.7016,-3.696,-3.6965,-3.6956,-3.6953,-3.6957,-3.7027,-3.7029,-3.703,-3.7032,0,-3.6742,-3.6737,-3.677,-3.6802,-3.6829,-3.6853,-3.6874,-3.6894,-3.6879,-3.6907,-3.6946,-3.6967,-3.7009,-3.7044,-3.7072,-3.7078,-3.7053,-3.7049,-3.7063,-3.707,-3.7073,-3.7072,-3.6888,-3.7045,-3.7044,-3.7043,-3.7042,-3.7042,-3.6846,-3.6883,-3.69,-3.6937,-3.6952,-3.6972,-3.7006,-3.7007,-3.704,-3.7074,-3.7061,-3.7106,-3.7121,-3.7156,-3.7166,-3.72,-3.7176,-3.7196,-3.7201,-3.7206,-3.7213,-3.7068,-3.7205,-3.7204,-3.7204,-3.7203,-3.7203,0,-3.6986,-3.6995,-3.703,-3.7061,-3.7091,-3.7065,-3.7087,-3.7113,-3.7153,-3.717,-3.7198,-3.7242,-3.7276,-3.7278,-3.7309,-3.7336,-3.7325,-3.7345,-3.7343,-3.7344,-3.7232,-3.7217,-3.7354,-3.7354,-3.7353,-3.7353,-3.7353,-3.7353,-3.7062,-3.7124,-3.712,-3.7188,-3.7196,-3.7241,-3.7255,-3.7274,-3.7287,-3.7339,-3.7367,-3.7369,-3.7379,-3.7411,-3.7441,-3.744,-3.7453,-3.7477,-3.7472,-3.7367,-3.7352,-3.7338,-3.7324,-3.748,-3.7481,-3.7582,-3.7583,-3.7583]}]]